Regional Weather Roundup
Issued by NWS

Home | Current Version | Previous Version | Graphics & Text | Print | Product List | Glossary On
Versions: 1 2 3 4 5 6 7 8 9 10 11 12 13 14 15 16 17 18 19 20 21 22 23 24 25 26 27 28 29 30 31 32 33 34 35 36 37 38 39 40 41 42 43 44 45 46 47 48 49 50
080
ASUS43 KLMK 290402
RWRKY
KENTUCKY REGIONAL WEATHER ROUNDUP
NATIONAL WEATHER SERVICE LOUISVILLE KY
1200 AM EDT FRI JUL 29 2016

NOTE "FAIR" INDICATES FEW OR NO CLOUDS BELOW 12,000 FEET
WITH NO SIGNIFICANT WEATHER AND/OR OBSTRUCTIONS TO VISIBILITY.

KYZ001>023-026-027-061>063-070>075-290500-
WESTERN AND SOUTH CENTRAL KENTUCKY

CITY           SKY/WX    TMP DP  RH WIND       PRES   REMARKS
PADUCAH        CLOUDY    76  71  85 CALM      29.90F
HENDERSON      CLOUDY    72  68  88 S3        29.91R
OWENSBORO      CLOUDY    73  72  97 CALM      29.94R
HOPKINSVILLE   NOT AVBL
BOWLING GREEN  CLOUDY    78  73  84 S7        29.94S
GLASGOW        NOT AVBL
$$

KYZ024-025-028>034-038-045-046-053-290500-
NORTH CENTRAL KENTUCKY

CITY           SKY/WX    TMP DP  RH WIND       PRES   REMARKS
LOUISVILLE/SDF CLOUDY    79  72  79 SW5       29.91S
LOUISVILLE/LOU CLOUDY    77  68  73 CALM      29.92S
FORT KNOX      NOT AVBL
$$

KYZ035>037-039>044-047>052-055>060-089>105-290500-
NORTHEAST KENTUCKY

CITY           SKY/WX    TMP DP  RH WIND       PRES   REMARKS
LEXINGTON      PTCLDY    73  70  90 S7        29.94F
COVINGTON      CLOUDY    74  72  93 SW5       29.92S
FRANKFORT      PTCLDY    74  71  91 SW3       29.92F
$$

KYZ054-064>069-076>088-106>120-290500-
SOUTHEAST KENTUCKY

CITY           SKY/WX    TMP DP  RH WIND       PRES   REMARKS
JACKSON        FOG       70  69  97 CALM      29.97S VSB 1/4
LONDON         FOG       69  67  93 SE3       29.97S VSB 3/4
SOMERSET       PTCLDY    68  68 100 CALM      29.98S FOG
MIDDLESBORO    MOCLDY    70  70 100 CALM      29.98F
MONTICELLO     MOCLDY   N/A N/A N/A N8        29.99S FOG
$$





USA.gov is the U.S. government's official web portal to all federal, state and local government web resources and services.